User: anonymous
Location: Iola
(37.9240°N, 95.4000°W)
Time: 09:46:18
(UTC-05:00)
Language:

Meteor 2-10 Rocket - Orbit

View from above orbital plane
View from above orbital plane
View from above satellite
View from above satellite

Ground track
Ground track

The orbit data is extracted from the following two-line orbital elements,

1 14453U 83109B   14112.48850884  .00000187  00000-0  70748-4 0  1248
2 14453 081.1677 184.7755 0105984 154.6981 286.9509 14.24484595583558
Epoch (UTC): 22 April 2014 11:43:27
Eccentricity: 0.0105984
inclination: 81.1677°
perigee height: 734 km
apogee height: 886 km
right ascension of ascending node: 184.7755°
argument of perigee: 154.6981°
revolutions per day: 14.24484595
mean anomaly at epoch: 286.9509°
orbit number at epoch: 58355

The dashed part of the orbit path shows where the satellite is in the earth's shadow,  

DLR